User: anonymous   Login
Location: Unspecified
(0.0000°N, 0.0000°E)
Time: 22:05:15
(UTC+00:00)
Language:

Explorer 11/Cluster Stage 4 - Orbit

View from above orbital plane
View from above orbital plane
View from above satellite
View from above satellite

Ground track
Ground track

The orbit data is extracted from the following two-line orbital elements,

1 00107U 61013A   17290.28520400  .00000479  00000-0  42664-4 0  9995
2 00107  28.7891 281.1752 0548969 191.2845 167.4955 14.08413588828290
Epoch (UTC): 17 October 2017 06:50:41
Eccentricity: 0.0548969
inclination: 28.7891°
perigee height: 467 km
apogee height: 1262 km
right ascension of ascending node: 281.1752°
argument of perigee: 191.2845°
revolutions per day: 14.08413588
mean anomaly at epoch: 167.4955°
orbit number at epoch: 82829

The dashed part of the orbit path shows where the satellite is in the earth's shadow,  

DLR